[[{"header":{"parameterUnit":"m.s-1","parameterCategory":1,"la1":30.2991,"la2":30.254,"lo1":-89.0895,"lo2":-89.0444,"dy":0.0017,"dx":0.0017,"nx":28,"ny":28,"refTime":"2024-02-07T03:00:00:Z","depth":0,"parameterNumber":2,"parameterNumberName":"U-component_of_WINDS"},"data":[0,0,0,0,0,0,0,0,0,0,0,0,0,0,0,0,0,0,0,0,0,0,0,0,0,0,0,0,0,0,0,0,0,0,0,0,0,0,0,0,0,0,0,0,0,0,0,0,0,0,0,0,0,0,0,0,0,0,1.7175,1.7175,0,1.7243,1.7243,1.7244,1.7213,1.7211,1.7209,1.7208,1.7281,1.7285,1.7288,0,0,0,0,0,0,0,0,0,0,0,0,0,1.7024,1.7027,1.7175,1.7175,1.7176,1.7242,1.7243,1.7244,1.7213,1.7211,1.7209,1.7207,1.728,1.7285,1.7289,0,0,0,0,0,0,0,0,0,0,0,0,0,1.7091,1.7028,1.7174,1.7169,1.7169,1.7242,1.7243,1.7245,1.7213,1.7211,1.7208,1.7206,1.7279,1.7284,1.7289,1.7374,0,0,1.7306,1.7308,0,0,0,0,0,0,0,0,1.7087,1.7096,1.7169,1.7169,1.7169,1.7216,1.7217,1.7288,1.7214,1.7197,1.7208,1.7205,1.7262,1.7269,1.7287,1.7378,1.7381,1.7306,1.7309,1.7312,1.7313,0,0,0,0,0,0,0,1.7082,1.7093,1.7202,1.717,1.717,1.7165,1.7171,1.7231,1.7243,1.7198,1.7196,1.7204,1.7262,1.7282,1.7289,1.7382,1.7306,1.7311,1.7314,1.7316,1.755,1.7553,0,0,0,0,0,0,1.7077,1.7089,1.7199,1.7204,1.7121,1.7169,1.7177,1.7204,1.7242,1.7246,1.7206,1.7202,1.7274,1.7283,1.7291,1.7396,1.7312,1.7317,1.732,1.7547,1.755,1.7554,0,0,0,0,0,0,1.7074,1.7087,1.7197,1.7146,1.7159,1.7175,1.7206,1.7207,1.7227,1.7249,1.7251,1.7224,1.7273,1.7284,1.7355,1.7398,1.7319,1.7324,1.7543,1.7548,1.7552,1.7605,0,0,0,0,0,0,1.707,1.7086,1.7117,1.7147,1.7162,1.7257,1.7208,1.721,1.7236,1.7231,1.7266,1.727,1.7271,1.7347,1.736,1.7404,1.7328,1.7539,1.7545,1.7551,1.76,1.7611,1.762,0,0,0,0,0,1.7064,1.7129,1.7119,1.7132,1.7201,1.726,1.7269,1.7268,1.7239,1.7272,1.7286,1.7268,1.7391,1.7354,1.7369,1.7415,1.7537,1.7544,1.755,1.7595,1.7609,1.762,0,0,0,0,0,0,1.7105,1.7133,1.7121,1.7197,1.7226,1.7254,1.7295,1.7282,1.7321,1.7315,1.7315,1.7323,1.7397,1.7413,1.7371,1.7502,1.746,1.747,1.7489,1.7502,1.7512,1.7508,1.7333,0,0,0,0,0,1.7122,1.7166,1.7189,1.7254,1.7269,1.7279,1.7305,1.7302,1.7333,1.7345,1.7364,1.7396,1.7442,1.7473,1.7516,1.7601,1.7611,1.7641,1.7651,1.766,1.7669,1.772,1.7735,1.7576,1.7576,1.7576,0,0,1.7159,1.718,1.7208,1.7262,1.7284,1.7332,1.729,1.7341,1.7378,1.7353,1.7422,1.7438,1.7473,1.7553,1.7589,1.7568,1.7715,1.7668,1.7675,1.768,1.7728,1.7743,1.7757,1.758,1.7579,1.7579,0,0,1.7252,1.727,1.7328,1.7351,1.7385,1.7392,1.7406,1.7437,1.7446,1.7515,1.7499,1.7543,1.7621,1.7648,1.7672,1.7778,1.7765,1.7792,1.7848,1.7897,1.791,1.7921,1.7962,1.7977,1.7801,1.7801,1.7801,0,1.7294,1.7363,1.736,1.7414,1.744,1.7419,1.748,1.7503,1.755,1.757,1.7546,1.7646,1.7668,1.7755,1.7782,1.78,1.7819,1.7789,1.7908,1.7919,1.7929,1.7969,1.7984,1.7804,1.7804,1.7804,1.7803,0,1.7416,1.7465,1.7508,1.7553,1.7584,1.7641,1.7648,1.768,1.7676,1.7686,1.7759,1.7785,1.7835,1.7855,1.785,1.7943,1.793,1.7907,1.7865,1.7948,1.7986,1.8,1.7809,1.7808,1.7807,1.7806,0,0,1.7536,1.758,1.7596,1.7618,1.7655,1.7694,1.7751,1.7799,1.7829,1.7862,1.7913,1.798,1.796,1.7988,1.7986,1.8029,1.8117,1.8002,1.8003,1.8025,1.8225,1.8244,1.8262,1.8107,1.811,1.8112,1.8223,0,1.7634,1.7733,1.7732,1.7825,1.7872,1.7855,1.7905,1.7935,1.7947,1.7991,1.8004,1.8054,1.8021,1.8039,1.808,1.8097,1.8157,1.8089,1.8158,1.816,1.8152,1.8281,1.8301,1.8404,1.8238,1.824,1.8242,0,1.7761,1.7799,1.7896,1.7929,1.7949,1.7994,1.8041,1.8081,1.8116,1.8122,1.8154,1.8147,1.8209,1.8163,1.8251,1.8204,1.8232,1.8245,1.8249,1.8258,1.8208,1.8296,1.8437,1.8454,1.8264,1.8262,1.8261,0,1.7843,1.7918,1.7987,1.8006,1.8045,1.8079,1.8097,1.8129,1.8159,1.8199,1.822,1.8267,1.8294,1.8332,1.834,1.8305,1.8429,1.8383,1.8439,1.8439,1.8467,1.8466,1.8618,1.848,1.848,1.848,1.8479,0,1.7954,1.8016,1.8025,1.8068,1.8138,1.8137,1.8207,1.8223,1.8252,1.83,1.8286,1.8332,1.8337,1.8385,1.8392,1.8465,1.8477,1.8486,1.8487,1.8489,1.8488,1.8509,1.8504,1.8484,1.8483,1.8482,1.8481,0,1.8059,1.8067,1.8142,1.8173,1.8183,1.8233,1.8261,1.8304,1.8314,1.8375,1.839,1.8408,1.8464,1.8474,1.854,1.8545,1.8634,1.8627,1.8622,1.8623,1.8679,1.8675,1.8852,1.8877,1.872,1.8722,1.8723,0,1.8131,1.8177,1.8214,1.8245,1.8265,1.8314,1.8345,1.8347,1.8381,1.8425,1.8463,1.8518,1.8562,1.8653,1.8673,1.8725,1.8721,1.878,1.8729,1.873,1.8727,1.8725,1.8732,1.879,1.8792,1.8793,1.8794,0,1.8259,1.8261,1.8305,1.8352,1.8389,1.8426,1.8461,1.8488,1.8495,1.8534,1.8591,1.8625,1.8693,1.8749,1.8801,1.8822,1.8812,1.881,1.8826,1.883,1.8827,1.8833,1.8653,1.8807,1.8805,1.8804,1.8804,1.8803,1.8352,1.8394,1.8427,1.8478,1.8505,1.8539,1.8581,1.8597,1.8644,1.87,1.8698,1.8762,1.8799,1.8867,1.8892,1.8944,1.8926,1.8948,1.8955,1.8961,1.8968,1.8816,1.8953,1.8953,1.8952,1.8952,1.8952,0,1.8482,1.8503,1.8549,1.8599,1.864,1.8624,1.8663,1.8699,1.8755,1.8789,1.8833,1.8901,1.8955,1.8981,1.9035,1.9072,1.9069,1.9087,1.9086,1.9092,1.8979,1.8962,1.9089,1.9089,1.9089,1.9089,1.9089,1.9089,1.8555,1.8627,1.8634,1.872,1.8741,1.8802,1.8827,1.8859,1.8887,1.8963,1.9008,1.9023,1.9056,1.9113,1.9164,1.917,1.9193,1.9214,1.9218,1.9113,1.9099,1.9086,1.907,1.9218,1.9218,1.9327,1.9328,1.9329]},{"header":{"parameterUnit":"m.s-1","parameterCategory":1,"la1":30.2991,"la2":30.254,"lo1":-89.0895,"lo2":-89.0444,"dy":0.0017,"dx":0.0017,"nx":28,"ny":28,"refTime":"2024-02-07T03:00:00:Z","depth":0,"parameterNumber":3,"parameterNumberName":"V-component_of_WINDS"},"data":[0,0,0,0,0,0,0,0,0,0,0,0,0,0,0,0,0,0,0,0,0,0,0,0,0,0,0,0,0,0,0,0,0,0,0,0,0,0,0,0,0,0,0,0,0,0,0,0,0,0,0,0,0,0,0,0,0,0,-2.6376,-2.6376,0,-2.6328,-2.6327,-2.6327,-2.6399,-2.6402,-2.6404,-2.6407,-2.6352,-2.6348,-2.6345,0,0,0,0,0,0,0,0,0,0,0,0,0,-2.6526,-2.6523,-2.6376,-2.6375,-2.6375,-2.6328,-2.6327,-2.6327,-2.6399,-2.6402,-2.6405,-2.6408,-2.6353,-2.6349,-2.6344,0,0,0,0,0,0,0,0,0,0,0,0,0,-2.6468,-2.6522,-2.6376,-2.6405,-2.6407,-2.6328,-2.6327,-2.6327,-2.6398,-2.6402,-2.6406,-2.6409,-2.6355,-2.6349,-2.6344,-2.6232,0,0,-2.6326,-2.6324,0,0,0,0,0,0,0,0,-2.6471,-2.6462,-2.6402,-2.6403,-2.6405,-2.6374,-2.636,-2.6295,-2.6397,-2.6401,-2.6407,-2.6411,-2.6356,-2.635,-2.6333,-2.6229,-2.6227,-2.6326,-2.6322,-2.632,-2.6318,0,0,0,0,0,0,0,-2.6475,-2.6465,-2.6357,-2.6401,-2.6403,-2.6419,-2.6415,-2.6348,-2.6358,-2.6401,-2.6406,-2.64,-2.6357,-2.6338,-2.6332,-2.6226,-2.6326,-2.6321,-2.6317,-2.6315,-2.6029,-2.6025,0,0,0,0,0,0,-2.6476,-2.6467,-2.6358,-2.6355,-2.6448,-2.6414,-2.6409,-2.638,-2.6359,-2.6359,-2.6397,-2.6404,-2.6346,-2.6338,-2.633,-2.6198,-2.632,-2.6314,-2.6311,-2.6033,-2.6028,-2.6024,0,0,0,0,0,0,-2.6479,-2.6466,-2.636,-2.6413,-2.6401,-2.6407,-2.6374,-2.6377,-2.6358,-2.6355,-2.6357,-2.6375,-2.6349,-2.6338,-2.6256,-2.6197,-2.6312,-2.6307,-2.6038,-2.6032,-2.6026,-2.5932,0,0,0,0,0,0,-2.6483,-2.6466,-2.6425,-2.6411,-2.6398,-2.6288,-2.637,-2.6373,-2.6348,-2.6356,-2.6336,-2.6336,-2.6351,-2.6264,-2.6251,-2.6191,-2.6302,-2.6044,-2.6035,-2.6028,-2.5941,-2.5924,-2.5909,0,0,0,0,0,-2.6488,-2.6399,-2.6422,-2.6409,-2.6346,-2.6284,-2.6276,-2.6297,-2.6343,-2.6301,-2.6299,-2.6336,-2.6206,-2.6255,-2.624,-2.6178,-2.6047,-2.6038,-2.6029,-2.5948,-2.5927,-2.5909,0,0,0,0,0,0,-2.6403,-2.6398,-2.6423,-2.6328,-2.6306,-2.6297,-2.6244,-2.6274,-2.6238,-2.6247,-2.6273,-2.6267,-2.618,-2.6171,-2.6226,-2.607,-2.6134,-2.6121,-2.6078,-2.6058,-2.6043,-2.6045,-2.6297,0,0,0,0,0,-2.6373,-2.6325,-2.6323,-2.6238,-2.6227,-2.6237,-2.6211,-2.6229,-2.6207,-2.6198,-2.6191,-2.6166,-2.6121,-2.6089,-2.6047,-2.5941,-2.5937,-2.5891,-2.5875,-2.5862,-2.585,-2.5793,-2.5772,-2.5993,-2.5993,-2.5994,0,0,-2.631,-2.6302,-2.627,-2.6221,-2.6207,-2.6155,-2.6229,-2.6171,-2.6132,-2.6188,-2.6111,-2.6105,-2.608,-2.5985,-2.5943,-2.5975,-2.5789,-2.585,-2.584,-2.5835,-2.5781,-2.576,-2.5742,-2.5987,-2.5988,-2.5989,0,0,-2.617,-2.6159,-2.6088,-2.6072,-2.6051,-2.6058,-2.6041,-2.6028,-2.6026,-2.595,-2.5991,-2.5945,-2.5865,-2.5846,-2.5825,-2.5679,-2.5711,-2.5665,-2.5581,-2.5525,-2.5508,-2.5493,-2.5439,-2.542,-2.5653,-2.5653,-2.5653,0,-2.6094,-2.6019,-2.6047,-2.5986,-2.5963,-2.6015,-2.5942,-2.5925,-2.5889,-2.5871,-2.5909,-2.581,-2.5797,-2.5699,-2.5663,-2.5646,-2.5626,-2.5666,-2.5509,-2.5493,-2.5479,-2.5429,-2.5409,-2.5647,-2.5648,-2.5648,-2.5649,0,-2.5927,-2.5875,-2.5819,-2.5786,-2.5757,-2.569,-2.5706,-2.5674,-2.5695,-2.5698,-2.5619,-2.5606,-2.5561,-2.554,-2.5559,-2.5444,-2.5465,-2.5505,-2.557,-2.5452,-2.5405,-2.5386,-2.5639,-2.5641,-2.5643,-2.5644,0,0,-2.5728,-2.5713,-2.5692,-2.5678,-2.5658,-2.5617,-2.5553,-2.5512,-2.5483,-2.5457,-2.5403,-2.5335,-2.5373,-2.535,-2.5367,-2.5319,-2.5203,-2.5365,-2.5365,-2.5334,-2.5075,-2.5043,-2.5021,-2.5226,-2.5222,-2.5219,-2.5076,0,-2.5588,-2.5479,-2.5502,-2.5394,-2.5345,-2.5395,-2.5339,-2.532,-2.5322,-2.528,-2.5282,-2.5233,-2.5287,-2.5274,-2.5228,-2.5227,-2.5151,-2.5238,-2.5174,-2.5171,-2.5176,-2.4996,-2.4963,-2.4828,-2.5058,-2.5055,-2.5053,0,-2.5408,-2.5378,-2.5265,-2.5255,-2.5235,-2.5184,-2.5149,-2.5109,-2.5089,-2.5094,-2.5069,-2.5096,-2.5032,-2.51,-2.501,-2.5068,-2.5044,-2.504,-2.5035,-2.5028,-2.5103,-2.4983,-2.4786,-2.4765,-2.5024,-2.5027,-2.5029,0,-2.5273,-2.5204,-2.5128,-2.5114,-2.51,-2.5063,-2.5056,-2.504,-2.5013,-2.4982,-2.4965,-2.4926,-2.4904,-2.4872,-2.4888,-2.4937,-2.4795,-2.4865,-2.4796,-2.4796,-2.4762,-2.4764,-2.4557,-2.4749,-2.475,-2.475,-2.475,0,-2.5112,-2.5041,-2.5067,-2.502,-2.4942,-2.497,-2.4891,-2.4889,-2.4875,-2.4827,-2.4867,-2.4822,-2.4846,-2.4802,-2.4814,-2.4738,-2.4728,-2.4729,-2.4732,-2.4724,-2.4724,-2.4707,-2.4716,-2.4745,-2.4746,-2.4747,-2.4748,0,-2.4946,-2.4962,-2.4882,-2.4876,-2.4873,-2.4816,-2.481,-2.4766,-2.4772,-2.4712,-2.4699,-2.4708,-2.4658,-2.4672,-2.4617,-2.4626,-2.4529,-2.4545,-2.4535,-2.4539,-2.4469,-2.4475,-2.4242,-2.4213,-2.4426,-2.4424,-2.4422,0,-2.4842,-2.4788,-2.4778,-2.475,-2.474,-2.4694,-2.4668,-2.4694,-2.4665,-2.4639,-2.4598,-2.4552,-2.4517,-2.4435,-2.4436,-2.4394,-2.4409,-2.4331,-2.4403,-2.4396,-2.4406,-2.4408,-2.4403,-2.4315,-2.4313,-2.4311,-2.4309,0,-2.4653,-2.4664,-2.4627,-2.4592,-2.456,-2.4534,-2.451,-2.4485,-2.4509,-2.4474,-2.4425,-2.4398,-2.4344,-2.4297,-2.426,-2.4251,-2.4283,-2.4287,-2.4269,-2.4258,-2.4255,-2.4255,-2.4494,-2.4292,-2.4293,-2.4295,-2.4296,-2.4296,-2.4514,-2.4469,-2.4455,-2.4412,-2.4398,-2.4376,-2.4334,-2.4336,-2.4296,-2.4255,-2.4273,-2.4216,-2.4198,-2.4151,-2.4138,-2.4093,-2.4122,-2.4096,-2.4089,-2.4081,-2.4072,-2.4264,-2.4086,-2.4087,-2.4087,-2.4087,-2.4088,0,-2.4327,-2.4321,-2.4282,-2.4249,-2.4215,-2.4252,-2.4228,-2.4196,-2.4146,-2.4128,-2.4093,-2.4037,-2.3993,-2.3991,-2.3949,-2.3914,-2.3927,-2.3902,-2.3903,-2.3901,-2.4049,-2.4068,-2.3891,-2.3891,-2.3891,-2.3891,-2.3891,-2.3891,-2.4225,-2.4152,-2.4161,-2.408,-2.4075,-2.4021,-2.4004,-2.3984,-2.3969,-2.3905,-2.3869,-2.3869,-2.3857,-2.3816,-2.3776,-2.3777,-2.3759,-2.3727,-2.3733,-2.3871,-2.389,-2.3909,-2.3927,-2.3724,-2.3723,-2.3589,-2.3588,-2.3587]}]]